EW1895 Weather Reports


Display with metric or nautical units.
time (UTC)temp
F
wind
direction
speed
MPH
gust
MPH
rain 1hr
in
rain 24hr
in
rain mn
in
humidity
%
barometer
mb
20260509161521 74 267 0.0 7.0 0.00 0.00 0.00 52 1010.8
20260509160019 72 80 0.0 5.0 0.00 0.00 0.00 54 1011.0
20260509154515 72 284 0.0 7.0 0.00 0.00 0.00 53 1011.2
20260509153113 71 248 0.0 7.0 0.00 0.00 0.00 58 1011.5
20260509151511 69 202 0.0 5.0 0.00 0.00 0.00 60 1011.6
20260509150009 68 270 0.0 4.0 0.00 0.00 0.00 63 1011.9
20260509144507 67 274 0.0 5.0 0.00 0.00 0.00 66 1012.0
20260509143105 65 154 0.0 7.0 0.00 0.00 0.00 69 1012.5
20260509141503 65 210 0.0 2.0 0.00 0.00 0.00 70 1012.6
20260509140002 64 178 0.0 5.0 0.00 0.00 0.00 72 1012.7
20260509134502 63 140 0.0 0.0 0.00 0.00 0.00 74 1012.8
20260509133102 61 126 0.0 4.0 0.00 0.00 0.00 75 1013.1
20260509131503 61 265 0.0 0.0 0.00 0.00 0.00 76 1013.1
20260509130106 60 237 0.0 4.0 0.00 0.00 0.00 79 1013.1
20260509124603 59 92 0.0 3.0 0.00 0.00 0.00 81 1013.0
20260509123103 57 192 0.0 3.0 0.00 0.00 0.00 83 1012.9
20260509121559 56 115 0.0 4.0 0.00 0.00 0.00 85 1013.1
20260509114557 53 179 0.0 0.0 0.00 0.00 0.00 88 1012.9
20260509113120 52 214 0.0 1.0 0.00 0.00 0.00 89 1013.1
20260509111604 51 224 0.0 2.0 0.00 0.00 0.00 89 1012.9
20260509110058 51 238 0.0 1.0 0.00 0.00 0.00 89 1013.0
20260509104600 50 166 0.0 1.0 0.00 0.00 0.00 88 1012.9
20260509103059 50 160 0.0 0.0 0.00 0.00 0.00 87 1012.8
20260509101556 50 160 0.0 0.0 0.00 0.00 0.00 86 1012.8
20260509100110 50 160 0.0 0.0 0.00 0.00 0.00 86 1012.8
20260509094555 50 197 0.0 0.0 0.00 0.00 0.00 85 1012.9
20260509093053 50 239 0.0 0.0 0.00 0.00 0.00 83 1012.9
20260509091603 51 240 0.0 0.0 0.00 0.00 0.00 83 1013.0
20260509090052 51 240 0.0 0.0 0.00 0.00 0.00 81 1013.0
20260509084548 51 240 0.0 0.0 0.00 0.00 0.00 80 1013.0
20260509083048 52 240 0.0 0.0 0.00 0.00 0.00 79 1012.7
20260509081556 52 239 0.0 0.0 0.00 0.00 0.00 78 1012.8
20260509080050 52 240 0.0 1.0 0.00 0.00 0.00 78 1012.8
20260509074545 52 213 0.0 1.0 0.00 0.00 0.00 77 1012.8
20260509073048 52 200 0.0 0.0 0.00 0.00 0.00 77 1013.2
20260509071546 52 200 0.0 0.0 0.00 0.00 0.00 75 1013.4
20260509070042 52 200 0.0 0.0 0.00 0.00 0.00 74 1013.5
20260509064541 53 200 0.0 0.0 0.00 0.00 0.00 74 1013.7
20260509063041 53 223 0.0 0.0 0.00 0.00 0.00 73 1014.0
20260509061550 53 223 0.0 0.0 0.00 0.00 0.00 71 1014.0
20260509060036 54 147 0.0 0.0 0.00 0.00 0.00 69 1014.1
20260509054540 54 148 0.0 0.0 0.00 0.00 0.00 69 1014.2
20260509053050 55 150 0.0 0.0 0.00 0.00 0.00 67 1014.0
20260509051531 55 150 0.0 0.0 0.00 0.00 0.00 67 1013.9
20260509050031 55 150 0.0 0.0 0.00 0.00 0.00 66 1013.9
20260509044532 56 150 0.0 0.0 0.00 0.00 0.00 64 1013.7
20260509043026 56 150 0.0 0.0 0.00 0.00 0.00 64 1013.7
20260509041525 56 187 0.0 0.0 0.00 0.00 0.00 63 1013.8
20260509040023 56 186 0.0 0.0 0.00 0.00 0.00 61 1013.8
20260509034521 57 186 0.0 0.0 0.00 0.00 0.00 61 1014.3
20260509033021 57 196 0.0 1.0 0.00 0.00 0.00 60 1014.3
20260509031518 57 194 0.0 0.0 0.00 0.00 0.00 60 1014.3
20260509030017 58 198 0.0 0.0 0.00 0.00 0.00 57 1014.2
20260509024518 58 200 0.0 0.0 0.00 0.00 0.00 56 1014.2
20260509023015 58 191 0.0 1.0 0.00 0.00 0.00 55 1014.2
20260509021513 58 138 0.0 0.0 0.00 0.00 0.00 56 1014.3
20260509020010 58 265 0.0 0.0 0.00 0.00 0.00 56 1014.0
20260509014508 59 265 0.0 0.0 0.00 0.00 0.00 57 1014.0
20260509013005 59 265 0.0 0.0 0.00 0.00 0.00 54 1013.8
20260509011504 59 265 0.0 0.0 0.00 0.00 0.00 56 1013.8
20260509010100 60 266 0.0 2.0 0.00 0.00 0.00 53 1013.6
20260509004557 61 187 0.0 0.0 0.00 0.00 0.00 51 1013.6
20260509003053 63 187 0.0 0.0 0.00 0.00 0.00 47 1013.5
20260509001550 63 187 0.0 0.0 0.00 0.00 0.00 46 1013.5
20260509000046 64 187 0.0 0.0 0.00 0.00 0.00 44 1013.5
20260508234546 65 187 0.0 0.0 0.00 0.00 0.00 41 1013.2
20260508233040 67 178 0.0 0.0 0.00 0.00 0.00 40 1013.1
20260508231552 67 182 0.0 2.0 0.00 0.00 0.00 38 1012.8
20260508230046 68 157 0.0 4.0 0.00 0.00 0.00 39 1012.9
20260508224534 68 348 0.0 1.0 0.00 0.00 0.00 38 1012.8
20260508223039 69 148 0.0 3.0 0.00 0.00 0.00 35 1012.9
20260508221528 70 163 0.0 5.0 0.00 0.00 0.00 36 1013.1
20260508220030 71 186 0.0 4.0 0.00 0.00 0.00 35 1013.2
20260508214527 72 279 1.0 3.0 0.00 0.00 0.00 33 1013.3
20260508213025 74 46 0.0 5.0 0.00 0.00 0.00 31 1013.3
20260508211525 74 328 0.0 6.0 0.00 0.00 0.00 31 1013.3
20260508210025 73 289 0.0 7.0 0.00 0.00 0.00 30 1013.3
20260508204525 74 194 0.0 7.0 0.00 0.00 0.00 30 1013.5
20260508203027 74 299 0.0 4.0 0.00 0.00 0.00 31 1013.5
20260508201525 74 174 0.0 4.0 0.00 0.00 0.00 31 1013.6
20260508200027 74 225 0.0 5.0 0.00 0.00 0.00 31 1013.5
20260508194523 75 180 0.0 4.0 0.00 0.00 0.00 30 1014.0
20260508193031 75 280 1.0 4.0 0.00 0.00 0.00 33 1014.1
20260508191535 75 198 0.0 3.0 0.00 0.00 0.00 32 1014.4
20260508190030 75 208 0.0 3.0 0.00 0.00 0.00 31 1014.6
20260508184524 74 184 0.0 4.0 0.00 0.00 0.00 32 1014.8
20260508183027 74 246 0.0 3.0 0.00 0.00 0.00 32 1015.1
20260508181523 75 246 0.0 3.0 0.00 0.00 0.00 31 1015.2
20260508180019 73 225 0.0 9.0 0.00 0.00 0.00 34 1015.5
20260508174516 73 286 0.0 4.0 0.00 0.00 0.00 31 1015.6
20260508173016 73 130 0.0 4.0 0.00 0.00 0.00 34 1015.7
20260508171514 72 277 0.0 3.0 0.00 0.00 0.00 32 1015.8
20260508170015 72 190 1.0 6.0 0.00 0.00 0.00 33 1016.1
20260508164517 72 161 0.0 5.0 0.00 0.00 0.00 31 1016.3
20260508163009 71 213 0.0 4.0 0.00 0.00 0.00 35 1016.7